Weather in Chattanooga

United States     35°02′44″N   85°18′33″W
temp.,
°C
wind,
m/s
gust,
m/s
humid.,
%
clouds,
%
prec.,
mm/h
press.,
hPa
HPBL,
m
16 may, sun
sun1623:00+14sse017599 0.0 102310
02:00+12nne118088 0.0 102310
05:00+14s127389 0.0 102250
08:00+14s2476100 0.0 1024133
11:00+22sw354561 0.0 10241211
14:00+24sw454152 0.0 10232118
17:00+25ssw334225 0.0 10202047
20:00+20sse117166 0.0 102118
17 may, mon
mon1723:00+16ssw117792 0.0 102211
02:00+14ese118558 0.0 102111
05:00+12ese119225 0.0 102210
08:00+14sse1381100 0.0 1023111
11:00+21s355289 0.0 1023910
14:00+25s4641100 0.0 10212042
17:00+26s4540100 0.0 10192225
20:00+20sse226940 0.0 102020
18 may, tue
tue1823:00+16ese117959 0.0 102114
02:00+15sse1182100 0.0 102110
05:00+14se1186100 0.0 102211
08:00+16se2882100 0.0 1023407
11:00+21sse4864100 0.0 1024940
14:00+23sse4754100 0.1 10231624
17:00+22se156970 0.1 1021251
20:00+21se3106798 0.1 1022573
19 may, wed
wed1923:00+16ese118979 0.0 102321
02:00+15e119579 0.0 102311
05:00+14ese0197100 0.0 102311
08:00+16se178919 0.0 1026316
11:00+23se585653 0.0 10261182
14:00+27sse564325 0.0 10242012
17:00+27se4541100 0.0 10222351
20:00+21se2568100 0.0 1023128
20 may, thu
thu2023:00+21se2106463 0.0 1025463
02:00+16ene11846 0.0 102511
05:00+14e11945 0.0 102511
08:00+16ese13865 0.0 1028163
11:00+23se475823 0.0 10281518
14:00+27sse454572 0.0 10272314
17:00+26s45504 0.0 10251259
20:00+22s11763 0.0 102617